Location: Ferchesar
(52.6477°N, 12.4298°E)
Time: 17:30:41
(UTC+01:00)

Tiros 1 - Pass Details

Date: 08 December 2021
Orbit: 629 x 664 km, 48.4° (Epoch: 22 January)

Event Time Altitude Azimuth Distance (km) Brightness Sun altitude
Rises 18:07:34 0° 235° (SW) 2,914 11.8 -18.7°
Reaches altitude 10° 18:09:59 10° 227° (SW) 2,011 10.6 -19.1°
Maximum altitude 18:14:14 37° 161° (SSE) 996 8.0 -19.7°
Enters shadow 18:15:22 32° 129° (SE) 1,101 8.0 -19.9°
Drops below altitude 10° 18:18:32 10° 94° (E) 2,034 - -20.3°
Sets 18:21:00 0° 86° (E) 2,951 - -20.7°
